Location: Haliburton Scout Reserve
(45.0900°N, 78.3200°W)
Time: 11:10:41
(UTC-04:00)

PCSat - Visible Passes

Search period start: 04 October 2024 00:00
Search period end: 14 October 2024 00:00
Orbit: 781 x 792 km, 67.1° (Epoch: 03 October)

Date Brightness Start Highest point End Pass type
(mag) Time Alt. Az. Time Alt. Az. Time Alt. Az.
04 Oct 10.2 04:41:29 41° SSE 04:42:45 50° ESE 04:47:58 10° NE visible
04 Oct 10.5 06:22:11 13° WSW 06:26:18 31° NW 06:31:05 10° NNE visible
05 Oct 10.8 04:11:07 36° ESE 04:11:07 36° ESE 04:15:56 10° NE visible
05 Oct 10.1 05:51:48 25° W 05:54:18 39° NW 05:59:24 10° NNE visible
06 Oct 11.5 03:40:39 24° E 03:40:39 24° E 03:43:45 10° NE visible
06 Oct 9.8 05:21:20 45° W 05:22:21 52° NW 05:27:40 10° NNE visible
07 Oct 12.2 03:10:07 14° ENE 03:10:07 14° ENE 03:11:23 10° ENE visible
07 Oct 9.6 04:50:47 67° NNW 04:50:47 67° NNW 04:55:52 10° NNE visible
07 Oct 11.3 06:31:28 10° WNW 06:34:47 16° NW 06:38:10 10° N visible
08 Oct 10.3 04:20:10 48° NNE 04:20:10 48° NNE 04:24:02 10° NNE visible
08 Oct 11.0 06:00:50 17° WNW 06:02:38 20° NW 06:06:37 10° N visible
09 Oct 11.3 03:49:29 29° NE 03:49:29 29° NE 03:52:07 10° NE visible
09 Oct 10.8 05:30:09 25° NW 05:30:31 25° NW 05:34:59 10° NNE visible
10 Oct 12.0 03:18:45 18° NE 03:18:45 18° NE 03:20:09 10° NE visible
10 Oct 10.7 04:59:24 30° NNW 04:59:24 30° NNW 05:03:19 10° NNE visible
11 Oct 12.5 02:47:58 10° NE 02:47:58 10° NE 02:48:04 10° NE visible
11 Oct 11.0 04:28:38 29° N 04:28:38 29° N 04:31:35 10° NNE visible
11 Oct 11.6 06:09:32 10° NW 06:11:20 11° NNW 06:13:07 10° N visible
12 Oct 11.5 03:57:48 23° NNE 03:57:48 23° NNE 03:59:49 10° NNE visible
12 Oct 11.5 05:38:27 14° NW 05:39:04 14° NNW 05:41:51 10° N visible
13 Oct 12.1 03:26:56 16° NNE 03:26:56 16° NNE 03:28:00 10° NNE visible
13 Oct 11.5 05:07:36 17° NNW 05:07:36 17° NNW 05:10:22 10° N visible
